Flag for U.S.A. Weather past 2 weeks in Pembroke Pines, Florida, U.S.A.

Now
61 °F

Clear.


Feels Like: 61 °F
Forecast: 60 / 80 °F
Wind: No wind

Location: North Perry Airport

Current Time: Mar 31, 2015 at 5:15:19 AM

Latest Report: Mar 31, 2015 at 4:53 AM


Visibility: 10 mi

Pressure: 30.12 "Hg

Humidity: 87%

Dew point: 57 °F

Location of Pembroke PinesLocation

Historic Weather in Pembroke Pines — Graph

°F

Pembroke Pines temperature yesterday

Maximum temperature yesterday: 77 °F (at 1:53 PM)
Minimum temperature yesterday: 57 °F (at 5:53 AM)
Average temperature yesterday: 68 °F

Past Weeks' High & Low Weather Summary

 TemperatureHumidityPressure
High91 °F (Mar 27, 1:53 PM)97% (Mar 25, 7:53 AM)30.32 "Hg (Mar 25, 7:53 AM)
Low56 °F (Mar 29, 7:53 AM)30% (Mar 29, 10:53 AM)29.82 "Hg (Mar 27, 4:53 PM)
Average75 °F68%30.07 "Hg
* Reported Mar 16 3:53 AM — Mar 31 3:53 AM, Pembroke Pines, Weather by CustomWeather, © 2015

Note: Actual official high and low records may vary slightly from our data, if they occured in-between our weather recording intervals... More about our weather records

Advertising

Pembroke Pines weather history for previous 24 hours

 ConditionsComfort  
Time TempWeatherWind HumidityBarometerVisibility
3:53 AM
Tue, Mar 31
62 °FClear.3 mph83%30.14 "Hg10 mi
2:53 AM63 °FClear.No wind81%30.15 "Hg10 mi
1:53 AM63 °FClear.No wind78%30.17 "Hg10 mi
12:53 AM64 °FClear.No wind75%30.19 "Hg10 mi
11:53 PM
Mon, Mar 30
66 °FClear.No wind70%30.20 "Hg10 mi
10:53 PM67 °FClear.No wind63%30.21 "Hg10 mi
9:53 PM69 °FClear.No wind59%30.20 "Hg10 mi
8:53 PM70 °FClear.3 mph57%30.19 "Hg10 mi
7:53 PM71 °FSunny.8 mph55%30.19 "Hg10 mi
6:53 PM73 °FSunny.9 mph50%30.19 "Hg10 mi
5:53 PM76 °FPassing clouds.9 mph45%30.18 "Hg10 mi
4:53 PM77 °FSunny.8 mph42%30.18 "Hg10 mi
3:53 PM76 °FPartly sunny.7 mph43%30.20 "Hg10 mi
2:53 PM77 °FPartly sunny.7 mph42%30.22 "Hg10 mi
1:53 PM77 °FPartly sunny.6 mph42%30.24 "Hg10 mi
12:53 PM76 °FPartly sunny.5 mph43%30.24 "Hg10 mi
11:53 AM74 °FPartly sunny.5 mph45%30.25 "Hg10 mi
10:53 AM74 °FScattered clouds.7 mph46%30.25 "Hg10 mi
9:53 AM72 °FSunny.5 mph52%30.25 "Hg10 mi
8:53 AM67 °FSunny.6 mph63%30.26 "Hg10 mi
7:53 AM59 °FClear.No wind81%30.25 "Hg10 mi
6:53 AM57 °FClear.No wind81%30.23 "Hg10 mi
5:53 AM57 °FClear.3 mph81%30.22 "Hg10 mi
Weather by CustomWeather, © 2015

See weather overviewHow to use our weather pages